Location: *
(45.0500°N, 12.0500°E)
Time: 02:14:09
(UTC+00:00)

Cosmos 1461 - Pass Details

Date: 09 April 2020
Orbit: 506 x 660 km, 65.0° (Epoch: 06 June)

Event Time Altitude Azimuth Distance (km) Brightness Sun altitude
Rises 18:57:05 0° 323° (NW) 2,893 7.7 -12.0°
Reaches altitude 10° 18:59:19 10° 323° (NW) 2,006 6.7 -12.4°
Maximum altitude 19:03:53 79° 237° (WSW) 659 3.2 -13.1°
Enters shadow 19:07:43 15° 152° (SSE) 1,728 4.9 -13.7°
